Wetbulb
68.86 70.08 70.94 70.53 70.22 70.12 69.94 70.42 70.73 70.90 70.93 71.26 71.42 70.64 69.88 70.06 69.62 69.34 68.89 67.76 66.11 64.24 62.74 61.34 59.73 58.59 60.30 61.64 64.59 64.86 62.23 63.16
68.37 68.84 69.65 69.67 70.01 69.38 69.47 69.74 69.92 70.17 70.52 70.28 69.58 69.10 69.07 69.19 68.75 68.58 67.93 66.73 65.45 63.48 62.02 60.74 59.90 58.69 60.12 61.74 64.66 63.58 60.16 60.46
68.46 68.55 68.73 68.66 69.02 70.06 69.92 70.12 69.74 69.54 70.03 69.51 67.44 66.90 67.24 67.29 66.82 67.34 66.61 65.79 64.70 62.98 61.76 60.60 60.00 59.12 60.26 63.23 62.33 59.13 57.96 57.93
67.92 68.03 68.12 68.64 69.67 69.11 68.71 69.43 69.04 68.43 67.92 67.51 66.18 64.98 64.65 65.19 65.97 66.10 65.45 64.55 63.81 62.73 61.46 60.12 58.69 50.73 53.77 59.40 58.17 57.59 57.00 56.62
67.18 67.47 68.01 68.48 69.03 68.82 68.57 68.71 67.53 67.10 66.43 65.77 64.57 63.89 63.73 62.85 63.28 64.06 62.39 63.27 59.69 59.74 58.37 55.91 53.23 47.78 49.70 56.64 57.21 56.83 55.63 56.53
67.22 67.31 67.13 67.42 68.25 68.03 68.01 67.96 67.80 67.12 66.63 66.05 65.40 63.62 61.71 60.22 61.18 60.99 58.85 57.80 56.34 55.56 54.30 53.32 51.28 48.90 53.41 56.17 56.29 55.57 54.41 55.94
66.84 66.95 66.93 66.57 66.45 67.19 66.67 66.83 66.83 66.40 67.42 67.31 66.64 65.21 63.01 60.74 60.69 59.59 57.79 56.38 55.38 54.12 52.75 51.75 50.67 50.85 54.68 56.15 55.32 54.28 54.28 55.56
67.15 67.04 67.02 66.48 66.08 66.30 66.52 66.15 66.21 66.37 66.39 66.23 66.59 66.25 63.65 61.12 59.61 58.77 57.53 56.66 55.03 54.49 52.11 50.82 50.45 50.28 54.06 55.17 54.62 53.59 53.46 54.36
66.33 65.77 66.14 66.23 65.58 65.80 66.02 66.00 66.16 65.91 66.27 65.69 65.68 65.50 64.42 61.29 59.92 58.79 57.72 56.75 55.34 53.71 51.11 49.81 49.36 50.28 54.12 53.96 53.40 52.63 52.49 53.37
65.65 66.37 64.00 64.72 65.30 65.14 65.43 66.38 65.81 66.34 66.02 66.50 66.10 65.81 65.58 61.81 60.16 58.75 57.97 56.84 55.68 54.01 51.87 49.08 49.29 50.47 51.03 52.55 51.96 51.61 51.33 50.83
64.72 64.50 63.70 64.07 64.01 65.86 66.06 65.55 65.52 66.11 66.22 66.52 65.85 65.84 65.56 63.54 61.46 59.95 58.30 57.10 55.69 54.62 52.28 50.64 49.66 49.70 50.80 50.39 50.69 50.42 50.28 50.86
63.73 65.24 64.97 66.14 66.30 65.94 65.18 64.45 64.70 65.92 66.70 66.68 65.90 65.67 65.06 64.57 62.66 60.80 58.42 57.10 55.14 53.93 52.06 52.04 51.29 50.86 51.09 48.85 48.84 49.67 49.68 49.20
55.17 54.62 55.31 60.55 62.37 61.10 61.42 61.41 61.70 63.03 64.16 64.78 65.69 64.91 64.67 64.70 63.85 60.43 58.64 57.35 56.14 53.36 52.60 50.55 51.18 51.38 47.47 43.54 43.48 44.60 46.23 48.13
53.37 53.62 53.76 54.38 53.96 54.99 60.09 62.38 63.13 63.12 63.67 62.88 63.79 64.31 64.59 63.94 63.36 61.71 58.62 57.36 55.98 53.96 52.52 50.49 51.26 50.71 48.10 45.46 42.70 43.87 44.34 46.63
51.33 51.35 51.71 53.31 53.90 53.50 54.06 55.94 55.84 55.76 57.78 60.45 61.15 61.83 62.80 63.34 63.42 62.75 59.41 57.70 55.72 53.44 52.63 51.55 49.54 49.64 50.74 46.87 39.87 38.90 41.20 42.37
50.51 50.80 50.09 51.34 53.05 51.63 50.91 50.61 49.96 54.17 55.10 56.36 57.13 58.81 59.56 60.94 61.91 62.26 61.08 57.85 56.17 53.42 53.88 52.45 52.15 48.47 49.65 48.91 45.31 43.27 40.73 38.10
48.83 49.42 49.97 50.55 50.36 49.06 49.24 48.77 50.57 51.57 51.98 51.95 53.49 55.36 56.91 58.66 59.12 59.56 59.50 58.96 56.73 54.69 53.15 52.57 52.67 50.28 49.36 49.26 44.69 43.38 41.32 41.22
46.82 47.77 48.05 48.55 48.85 48.63 47.38 46.79 47.44 48.19 48.77 48.51 49.38 51.36 53.47 55.26 56.73 57.13 58.08 58.78 57.58 55.90 53.91 52.53 52.37 52.26 50.35 49.62 46.90 44.31 41.68 41.87
47.56 47.17 47.22 47.38 46.79 47.67 47.61 47.54 47.59 47.35 47.55 47.67 47.94 48.67 48.81 50.52 52.94 54.35 54.91 55.83 57.17 56.69 54.84 52.83 51.97 52.03 50.53 49.22 49.30 47.09 46.78 45.59
44.27 45.52 45.89 46.24 46.58 45.89 46.33 47.34 47.89 48.33 48.31 48.32 48.34 48.88 48.83 49.32 49.01 50.71 52.14 53.67 54.83 55.71 55.58 54.23 52.48 51.77 51.35 49.58 49.07 48.41 47.22 46.44
MSLP
1010.96 1011.41 1011.65 1011.91 1012.29 1012.70 1013.11 1013.62 1014.06 1014.40 1014.60 1014.80 1015.02 1015.37 1015.52 1015.74 1016.01 1016.19 1016.46 1016.83 1017.15 1017.54 1017.64 1017.72 1017.94 1018.00 1018.48 1018.44 1018.63 1019.09 1019.39 1019.54
1010.85 1011.27 1011.60 1011.97 1012.30 1012.62 1013.04 1013.47 1013.80 1014.18 1014.50 1014.74 1015.11 1015.44 1015.74 1016.02 1016.28 1016.50 1016.81 1017.15 1017.29 1017.49 1017.76 1017.80 1017.87 1018.01 1018.50 1018.41 1018.76 1019.10 1019.43 1019.67
1010.68 1010.92 1011.29 1011.69 1012.09 1012.47 1012.82 1013.19 1013.57 1014.02 1014.41 1014.81 1015.29 1015.71 1015.95 1016.15 1016.37 1016.80 1017.30 1017.50 1017.76 1017.96 1017.90 1017.88 1017.93 1017.99 1018.34 1018.53 1018.70 1019.37 1019.74 1019.89
1010.41 1010.69 1011.11 1011.50 1011.81 1012.12 1012.51 1013.02 1013.51 1013.95 1014.29 1014.54 1014.96 1015.34 1015.70 1016.04 1016.29 1016.62 1017.05 1017.32 1017.48 1017.76 1017.95 1018.25 1018.36 1018.66 1018.48 1018.51 1018.83 1019.22 1019.70 1020.03
1010.14 1010.24 1010.63 1011.18 1011.58 1012.02 1012.47 1012.80 1013.19 1013.57 1013.99 1014.46 1014.96 1015.49 1015.83 1015.98 1016.27 1016.62 1017.19 1017.51 1017.95 1018.19 1018.29 1018.19 1018.24 1018.86 1019.05 1018.75 1018.88 1019.20 1019.63 1019.91
1009.78 1010.18 1010.69 1011.16 1011.34 1011.80 1012.25 1012.75 1013.20 1013.62 1014.05 1014.58 1015.12 1015.71 1016.14 1016.45 1016.46 1016.78 1017.30 1017.72 1018.10 1018.45 1018.74 1018.87 1018.95 1019.13 1018.98 1019.15 1019.32 1019.54 1019.83 1019.94
1009.85 1010.03 1010.35 1010.62 1011.05 1011.43 1011.85 1012.28 1012.77 1013.28 1013.77 1014.13 1014.45 1014.98 1015.41 1015.82 1016.10 1016.46 1017.00 1017.52 1017.95 1018.40 1018.66 1018.73 1018.97 1019.37 1019.44 1019.24 1019.52 1019.65 1019.88 1020.11
1009.24 1009.38 1009.78 1010.43 1010.93 1011.35 1011.63 1011.89 1012.09 1012.32 1012.78 1013.24 1013.70 1014.22 1014.70 1015.24 1015.68 1015.97 1016.28 1016.48 1017.05 1017.47 1017.88 1018.34 1018.58 1018.98 1019.27 1019.51 1019.72 1019.98 1020.04 1019.98
1009.00 1009.84 1010.39 1010.76 1011.10 1011.44 1011.77 1012.03 1012.36 1012.51 1012.65 1013.10 1013.43 1013.77 1014.15 1014.53 1015.05 1015.62 1015.93 1016.30 1016.62 1017.24 1017.64 1017.93 1018.13 1018.50 1018.93 1019.23 1019.60 1019.99 1020.27 1020.42
1008.94 1009.74 1010.46 1011.09 1011.60 1011.95 1012.16 1012.19 1012.41 1012.49 1012.69 1012.86 1012.99 1013.18 1013.49 1013.90 1014.27 1014.73 1014.89 1015.16 1015.53 1016.38 1017.09 1017.64 1017.92 1018.19 1018.54 1018.88 1019.52 1019.92 1020.10 1020.18
1009.27 1010.05 1010.80 1011.34 1011.73 1011.90 1012.05 1012.15 1012.41 1012.49 1012.74 1012.75 1012.71 1012.69 1012.70 1013.05 1013.57 1013.87 1014.27 1014.86 1015.16 1015.16 1015.78 1016.54 1017.25 1018.05 1018.45 1018.66 1019.00 1019.70 1020.02 1020.06
1009.36 1010.11 1010.61 1010.98 1011.30 1011.57 1011.81 1011.97 1012.15 1012.15 1012.25 1012.24 1012.25 1012.22 1012.18 1012.48 1012.74 1013.22 1013.87 1014.24 1015.30 1015.58 1015.86 1015.98 1016.50 1017.30 1018.11 1019.06 1019.16 1019.27 1019.54 1019.99
1009.83 1010.33 1011.16 1011.25 1011.62 1011.95 1012.02 1011.97 1012.00 1012.00 1012.03 1012.05 1012.13 1012.06 1011.85 1011.63 1012.09 1012.63 1012.98 1013.51 1013.28 1013.78 1014.21 1015.69 1015.97 1016.57 1017.98 1019.49 1020.05 1019.95 1019.72 1019.77
1010.45 1010.71 1011.35 1011.76 1011.93 1012.07 1012.10 1012.26 1012.22 1012.26 1012.18 1011.85 1011.86 1011.74 1011.62 1011.62 1011.60 1011.65 1011.80 1012.12 1012.64 1013.35 1013.23 1014.16 1014.76 1015.32 1015.81 1017.79 1019.81 1020.53 1020.17 1020.19
1010.84 1011.14 1011.55 1011.65 1011.87 1011.90 1012.11 1012.17 1012.32 1012.16 1012.09 1012.02 1011.94 1011.87 1011.74 1011.34 1011.40 1011.05 1011.18 1011.34 1011.46 1011.85 1011.71 1012.55 1012.66 1013.70 1013.52 1014.47 1017.73 1018.18 1018.91 1019.64
1010.95 1011.06 1011.40 1011.97 1011.99 1012.07 1012.39 1012.62 1012.65 1012.26 1012.06 1011.77 1011.66 1011.47 1011.42 1011.40 1011.37 1010.94 1010.34 1010.29 1010.11 1010.21 1010.21 1011.04 1011.24 1010.42 1012.65 1012.79 1013.48 1015.00 1016.66 1018.52
1011.37 1011.31 1011.41 1011.27 1011.15 1011.73 1012.32 1012.61 1012.54 1012.13 1011.95 1011.87 1011.57 1011.22 1010.97 1010.80 1010.69 1010.58 1010.51 1010.49 1009.73 1009.83 1009.32 1010.05 1010.06 1010.98 1011.88 1010.85 1012.30 1013.42 1014.20 1014.34
1011.65 1011.87 1012.07 1011.91 1011.99 1012.10 1012.41 1012.34 1012.29 1012.31 1012.08 1011.85 1011.52 1011.03 1010.69 1010.52 1010.35 1010.17 1010.08 1009.91 1009.45 1009.47 1009.78 1009.10 1008.85 1008.89 1009.44 1010.28 1010.21 1011.33 1011.93 1011.89
1011.82 1011.93 1012.06 1012.18 1012.38 1012.47 1012.47 1012.49 1012.38 1012.21 1011.83 1011.33 1010.85 1010.57 1010.28 1010.01 1010.03 1009.80 1009.42 1008.98 1008.88 1008.86 1008.58 1008.73 1009.22 1008.32 1007.42 1009.17 1008.93 1009.52 1009.77 1010.14
1012.19 1012.49 1012.64 1012.65 1012.52 1012.58 1012.45 1012.40 1012.23 1011.71 1011.30 1010.77 1010.23 1009.69 1009.11 1009.01 1008.93 1008.84 1008.73 1008.46 1008.01 1007.60 1007.56 1007.53 1007.58 1007.83 1008.59 1007.93 1008.44 1008.96 1009.13 1009.17
Wind_Speed
9 10 13 14 13 12 12 12 11 12 12 13 13 12 12 12 11 11 11 12 12 9 8 6 3 2 8 8 13 14 6 5
10 8 9 9 9 14 13 12 13 12 13 12 12 12 12 11 10 9 11 11 11 10 7 6 5 3 8 9 16 14 6 6
11 11 9 9 9 10 13 14 13 13 12 11 8 4 6 8 9 10 9 9 8 8 7 6 6 5 8 14 14 5 5 3
11 11 11 10 8 9 9 9 7 6 7 8 6 6 6 6 9 13 12 10 10 9 8 6 5 1 3 11 6 7 5 4
12 12 11 11 9 7 5 5 5 6 8 7 5 4 4 4 4 5 4 8 2 3 3 3 4 3 2 5 8 7 4 3
12 10 10 9 6 7 8 6 5 5 5 7 6 4 3 3 3 5 4 3 4 3 2 3 3 2 5 7 7 5 3 3
11 11 11 11 9 7 8 8 7 7 7 9 8 7 7 6 5 5 5 4 4 4 4 4 3 2 4 8 7 6 5 4
13 15 12 11 9 8 8 7 8 9 8 10 12 9 8 8 7 7 7 8 7 7 6 5 4 4 6 6 7 5 5 6
13 8 6 7 7 6 4 4 5 6 6 7 10 10 10 11 9 8 8 8 9 6 5 4 4 4 8 7 7 7 6 6
7 6 5 5 4 3 2 3 4 5 6 7 12 12 11 11 10 10 10 10 10 9 7 5 5 5 6 8 7 6 7 7
10 8 7 7 6 4 3 2 3 3 4 7 11 13 14 11 10 10 12 9 9 10 9 9 8 5 7 7 7 7 8 7
13 8 7 7 5 4 4 3 4 4 6 8 11 11 14 12 10 10 10 10 8 8 9 9 9 9 8 7 6 7 7 7
12 12 7 5 4 3 2 3 2 3 4 5 9 10 12 14 11 9 10 12 14 17 13 13 8 10 8 4 3 1 5 7
9 10 8 5 3 1 2 2 2 3 2 4 7 9 11 10 12 12 13 12 14 14 15 10 10 13 9 9 5 2 3 6
8 8 7 5 5 3 3 3 2 2 2 2 3 6 10 11 12 12 11 12 13 17 17 23 17 14 18 10 6 7 6 4
7 7 6 6 5 4 4 3 3 3 2 2 4 6 6 9 12 14 14 12 16 16 17 20 17 18 12 10 2 6 8 6
6 7 7 7 8 5 3 3 3 2 3 5 6 6 7 8 10 12 11 10 13 16 17 20 17 15 16 19 8 4 3 8
6 7 4 5 5 5 4 5 5 4 5 5 5 5 5 7 9 11 13 13 12 12 15 19 19 18 17 16 17 14 11 7
4 6 5 6 6 7 7 7 6 7 7 6 10 7 5 7 8 10 11 14 16 14 15 16 17 17 21 16 16 16 11 9
8 7 5 5 5 7 7 7 5 8 8 9 12 11 8 7 8 11 14 16 17 17 14 15 20 19 20 18 15 13 9 12
Wind_Direction
157 167 162 157 156 154 154 159 160 162 160 161 159 159 156 155 154 151 143 142 153 167 169 167 177 139 91 103 123 114 102 99
154 159 164 161 163 156 157 162 163 166 168 165 160 160 157 156 160 139 140 157 161 172 179 183 193 159 101 110 123 118 113 107
163 164 166 159 158 167 164 168 169 170 168 163 152 154 157 156 142 138 147 157 166 187 189 201 216 167 122 121 115 115 106 105
177 169 170 163 169 169 167 170 167 164 165 167 158 157 159 153 155 150 161 167 170 185 194 217 240 82 141 127 128 125 121 129
186 174 169 172 177 172 171 168 165 173 168 162 154 144 163 143 152 154 151 167 163 186 213 210 195 142 153 138 134 128 133 120
182 169 164 175 165 174 175 177 176 180 173 166 157 147 151 149 148 146 145 152 166 174 243 280 254 147 139 125 128 131 131 132
183 170 177 179 173 172 175 178 170 165 167 180 170 175 173 167 169 161 165 151 165 180 208 226 235 164 149 137 138 133 131 129
178 187 180 174 179 181 184 184 184 180 182 183 180 181 174 179 179 182 185 175 175 183 188 202 221 162 160 150 142 134 126 127
185 181 163 168 177 187 180 177 178 194 192 183 191 192 186 181 182 189 190 189 180 185 187 194 211 155 160 152 143 139 134 126
127 140 132 106 110 126 165 183 190 196 195 194 203 203 196 192 188 197 194 188 183 185 183 183 197 167 154 155 152 147 144 138
91 93 95 99 97 122 148 198 218 220 211 215 216 214 207 194 202 203 192 197 200 188 182 185 183 161 158 148 149 151 155 151
95 96 107 131 146 157 175 182 203 207 222 221 221 219 214 210 205 197 197 194 199 196 196 190 179 162 152 149 158 160 158 163
93 89 66 77 66 31 314 245 187 208 208 232 247 237 228 216 215 208 199 199 202 196 181 185 177 156 117 65 28 109 158 171
98 96 95 92 94 101 99 6 8 333 305 245 239 242 240 237 231 215 204 201 203 202 184 189 183 177 162 140 156 203 230 195
113 122 125 113 111 88 45 39 15 2 304 272 267 281 280 254 243 238 219 211 206 195 193 191 188 191 174 158 153 202 145 179
72 67 76 138 137 115 131 178 202 230 241 257 279 260 254 266 281 263 234 217 212 203 200 202 201 179 195 188 104 146 177 152
72 59 42 22 11 72 123 214 246 276 288 282 277 274 267 265 263 262 269 257 233 222 207 209 206 189 204 191 169 190 214 151
80 80 66 38 14 319 271 271 279 284 270 266 257 253 256 258 259 264 265 262 246 233 234 226 211 210 199 209 194 188 188 168
88 49 14 343 330 328 338 320 300 266 267 269 288 278 246 250 250 260 265 262 257 244 228 217 227 225 189 212 201 221 188 185
64 52 31 6 353 326 316 297 276 289 280 279 278 266 262 252 243 256 262 268 265 251 236 231 216 216 222 212 216 207 216 187